Regional Weather Roundup
Issued by NWS

Home | Current Version | Previous Version | Graphics & Text | Print | Product List | Glossary On
Versions: 1 2 3 4 5 6 7 8 9 10 11 12 13 14 15 16 17 18 19 20 21 22 23 24 25 26 27 28 29 30 31 32 33 34 35 36 37 38 39 40 41 42 43 44 45 46 47 48 49 50
000
ASUS43 KMKX 080100
RWRWI

WISCONSIN REGIONAL WEATHER ROUNDUP
NATIONAL WEATHER SERVICE MILWAUKEE/SULLIVAN WI
700 PM CST WED DEC 07 2016

NOTE: "FAIR" INDICATES FEW OR NO CLOUDS BELOW 12,000 FEET WITH NO
SIGNIFICANT WEATHER AND/OR OBSTRUCTIONS TO VISIBILITY.

WIZ001-002-006>008-014>016-023>028-080200-
NORTHWEST WISCONSIN

CITY           SKY/WX    TMP DP  RH WIND       PRES   REMARKS
SUPERIOR ARPT  CLOUDY    19  13  77 W17G23    29.95R WCI   4
ASHLAND        LGT SNOW  19  14  81 SW16G24   29.91S WCI   4
HAYWARD        FLURRIES  17   9  70 W10G23    29.94R WCI   5
SIREN          LGT SNOW  17   9  70 W16G25    30.01R WCI   2
CUMBERLAND     CLOUDY    18   9  68 W18G24    29.98R WCI   2
RICE LAKE      FLURRIES  18  11  72 W16G22    30.01R WCI   4
CHETEK         CLOUDY    17  10  73 MISG      30.00S
LADYSMITH      CLOUDY    19  12  74 W14G21    29.97R WCI   6
EAU CLAIRE     NOT AVBL
MENOMONIE      MOCLDY    19  12  73 W15G21    30.05R WCI   5
NEW RICHMOND   FLURRIES  17   9  70 W10G21    30.06R WCI   5
OSCEOLA        CLOUDY    18   9  69 W17       30.09S WCI   3
$$

WIZ003>005-009-010-017-018-080200-
NORTH CENTRAL WISCONSIN

CITY           SKY/WX    TMP DP  RH WIND       PRES   REMARKS
MANITOWISH WTR LGT SNOW  16  13  88 W12G20    29.84R WCI   3
ARBOR VITAE    LGT SNOW  19  15  82 W12G18    29.85R WCI   7
WOODRUFF       LGT SNOW  19  15  82 W12G18    29.85R WCI   7
RHINELANDER    CLOUDY    18  12  77 W17G29    29.87R WCI   3
EAGLE RIVER    LGT SNOW  17  11  77 W14G20    29.83R WCI   3
LAND O LAKES   LGT SNOW  17  12  81 W9G17     29.83S WCI   6
PHILLIPS       FLURRIES  17  11  79 W10G21    29.89S WCI   4
TOMAHAWK       MOCLDY    17  11  77 W10G16    29.90R WCI   5
MEDFORD        CLOUDY    17   9  72 W14G20    29.93S WCI   2
MERRILL        CLOUDY    19  12  74 W17G29    29.93R WCI   3
$$

WIZ029-030-035-036-043>047-080200-
CENTRAL WISCONSIN

CITY           SKY/WX    TMP DP  RH WIND       PRES   REMARKS
WAUSAU         FLURRIES  18  12  77 W16G23    29.94S WCI   3
MOSINEE        CLOUDY    18  12  79 W20G28    29.97R WCI   1
MARSHFIELD     CLOUDY    18  10  71 W15G24    29.98R WCI   4
STEVENS POINT  CLOUDY    18  11  71 W14G22    29.99R WCI   5
WAUPACA        CLOUDY    24  14  67 SW15G24   30.01S WCI  11
WAUTOMA        FLURRIES  21  14  74 W15       30.04R WCI   8
WISC RAPIDS    CLOUDY    20  12  71 W15G23    30.03R WCI   6
CAMP DOUGLAS   NOT AVBL
$$

WIZ011>013-019>022-031-037>040-048>050-080200-
NORTHEAST WISCONSIN

CITY           SKY/WX    TMP DP  RH WIND       PRES   REMARKS
ANTIGO         CLOUDY    17  12  78 W20G28    29.89R WCI   1
SHAWANO        CLOUDY    24  13  63 W10G23    29.96S WCI  14
OCONTO         CLOUDY    23  12  63 W18G28    29.96R WCI   9
STURGEON BAY   CLOUDY    24  15  68 W15G24    29.95R WCI  11
GREEN BAY      CLOUDY    25  15  66 W23G30    29.97S WCI  10
MANITOWOC      NOT AVBL
APPLETON       CLOUDY    21  12  68 W21       29.98R WCI   6
CLINTONVILLE   FLURRIES  23  12  63 W13G22    29.98R WCI  11
OSHKOSH        CLOUDY    22  12  65 W14G24    30.01R WCI   9
$$

WIZ032>034-041-042-053>061-080200-
SOUTHWEST WISCONSIN

CITY           SKY/WX    TMP DP  RH WIND       PRES   REMARKS
LA CROSSE      CLOUDY    23  12  62 W17G29    30.12S WCI   9
SPARTA         FLURRIES  20  13  73 W9G16     30.09S WCI  10
VIROQUA        CLOUDY    19  13  77 W12       30.07S WCI   6
BOSCOBEL       CLOUDY    23  13  65 W8G18     30.14S WCI  14
PRAIRIE DU CHI CLOUDY    24  13  64 W10G16    30.15S WCI  13
PLATTEVILLE    CLOUDY    22  16  79 W16G31    30.13S WCI   8
$$

WIZ056-057-062-063-064-067-068-080200-
SOUTH CENTRAL WISCONSIN

CITY           SKY/WX    TMP DP  RH WIND       PRES   REMARKS
REEDSBURG      FLURRIES  19  13  75 W13G24    30.08R WCI   7
BARABOO/DELLS  CLOUDY    19  12  73 W16G23    30.06S WCI   5
LONE ROCK      NOT AVBL
MINERAL POINT  FLURRIES  23  18  80 W20       30.09S WCI   8
MADISON        FLURRIES  20  12  71 W13G18    30.08S WCI   7
MIDDLETON      CLOUDY    22  15  75 W18G24    30.08F WCI   7
WATERTOWN      CLOUDY    20  15  79 W10G17    30.07S WCI   9
MONROE         CLOUDY    21  14  73 W15G25    30.11R WCI   8
JANESVILLE     CLOUDY    21  16  79 W20G30    30.12R WCI   6
$$

WIZ051-052-058>065-066-070>072-080200-
SOUTHEAST WISCONSIN

CITY           SKY/WX    TMP DP  RH WIND       PRES   REMARKS
MILWAUKEE      CLOUDY    23  12  62 W14G29    30.07S WCI  11
WAUKESHA       MOCLDY    18  12  79 W20G26    30.07R WCI   1
MILWAUKEE/TIMM CLOUDY    21  10  63 W18       30.07R WCI   6
RACINE         CLOUDY    22  13  68 W16G24    30.09S WCI   8
BURLINGTON     CLOUDY    21  15  77 W17G24    30.09S WCI   6
KENOSHA        CLOUDY    22  14  71 W23G33    30.08S WCI   6
FOND DU LAC    CLOUDY    22  12  65 W14G21    30.03S WCI   9
SHEBOYGAN      CLOUDY    22  13  68 W22G30    30.02R WCI   6
WEST BEND      CLOUDY    21  14  73 W17G28    30.03R WCI   7
JUNEAU         FLURRIES  20  14  76 W16G22    30.06S WCI   6
$$

LSZ147-162-080200-
LAKE SUPERIOR

STATION/POSITION TIME  TEMP    WIND        PRES    WAVE
                       AIR SEA DIR/SP/G            HT/PER
                 (UTC) (F)     (DEG/KT/KT) (MB)    (FT/S)
DEVILS ISLAND    0000   25     250/ 32/ 39 1011.2R
PORT WING        0040   20     230/ 14/ 21 1012.9S
SAXON HARBOR     0030   21     220/  9/ 19 1012.5R
$$

LMZ867-665-643>646-080200-
LAKE MICHIGAN

STATION/POSITION TIME  TEMP    WIND        PRES    WAVE
                       AIR SEA DIR/SP/G            HT/PER
                 (UTC) (F)     (DEG/KT/KT) (MB)    (FT/S)
CHAMBERS ISLAND  0040   24     220/ 12/ 26 1012.5S
NORTHPORT PIER   0048   25     270/  8/ 19 1012.9R
SISTER BAY       2353   26     320/ 27/ 32   N/A
KEWAUNEE LAKESHO 0030   24     280/ 14/ 24 1014.2R
SHEBOYGAN LAKESH 0000   23     260/ 15/ 20 1017.2R
PORT WASHINGTON  0030   23     260/ 12/ 17 1018.3R
MILWAUKEE LAKESH 0030   23     260/ 17/ 22   N/A
KENOSHA   LAKESH 0000   24     260/ 19/ 27 1019.0
$$

TC  - TEMPERATURE IN CELSIUS
VSB - VISIBILITY IN STATUTE MILES
WCI - WIND CHILL INDEX
HX  - HEAT INDEX




USA.gov is the U.S. government's official web portal to all federal, state and local government web resources and services.